Regional Weather Roundup
Issued by NWS

Home | Current Version | Previous Version | Text Only | Print | Product List | Glossary On
Versions: 1 2 3 4 5 6 7 8 9 10 11 12 13 14 15 16 17 18 19 20 21 22 23 24 25 26 27 28 29 30 31 32 33 34 35 36 37 38 39 40 41 42 43 44 45 46 47 48 49 50
000
ASUS43 KLMK 311602
RWRKY
KENTUCKY REGIONAL WEATHER ROUNDUP
NATIONAL WEATHER SERVICE LOUISVILLE KY
1200 PM EDT FRI OCT 31 2014

NOTE "FAIR" INDICATES FEW OR NO CLOUDS BELOW 12,000 FEET
WITH NO SIGNIFICANT WEATHER AND/OR OBSTRUCTIONS TO VISIBILITY.

KYZ001>023-026-027-061>063-070>075-311700-
WESTERN AND SOUTH CENTRAL KENTUCKY

CITY           SKY/WX    TMP DP  RH WIND       PRES   REMARKS
PADUCAH        CLOUDY    51  42  71 N17G29    30.11F
HENDERSON      CLOUDY    45  34  65 N15G29    30.10R
OWENSBORO      LGT RAIN  49  42  76 N15G25    30.06S
HOPKINSVILLE   NOT AVBL
BOWLING GREEN  CLOUDY    49  44  83 NW9       30.04S
GLASGOW        CLOUDY    47  46  96 W5        30.01F
$$

KYZ024-025-028>034-038-045-046-053-311700-
NORTH CENTRAL KENTUCKY

CITY           SKY/WX    TMP DP  RH WIND       PRES   REMARKS
LOUISVILLE/SDF LGT RAIN  50  41  71 NW8       29.99F
LOUISVILLE/LOU LGT RAIN  50  41  71 NW10      30.00F
FORT KNOX      CLOUDY    49  42  75 W10       29.99F
$$

KYZ035>037-039>044-047>052-055>060-089>105-311700-
NORTHEAST KENTUCKY

CITY           SKY/WX    TMP DP  RH WIND       PRES   REMARKS
LEXINGTON      CLOUDY    47  42  83 SW5       29.97F HAZE
COVINGTON      LGT RAIN  47  40  76 W8        29.95S
FRANKFORT      CLOUDY    46  43  89 SW7       29.97F FOG
$$

KYZ054-064>069-076>088-106>120-311700-
SOUTHEAST KENTUCKY

CITY           SKY/WX    TMP DP  RH WIND       PRES   REMARKS
JACKSON        LGT RAIN  43  40  89 CALM      29.96F FOG
LONDON         LGT RAIN  45  41  86 W5        29.98F FOG
SOMERSET       CLOUDY    45  45 100 W3        30.01S
MIDDLESBORO    LGT RAIN  43  41  92 CALM      29.98F
MONTICELLO     PTSUNNY   47  44  89 W3        30.01F
$$




USA.gov is the U.S. government's official web portal to all federal, state and local government web resources and services.